Regional Weather Roundup
Issued by NWS

Home | Current Version | Previous Version | Graphics & Text | Print | Product List | Glossary On
Versions: 1 2 3 4 5 6 7 8 9 10 11 12 13 14 15 16 17 18 19 20 21 22 23 24 25 26 27 28 29 30 31 32 33 34 35 36 37 38 39 40 41 42 43 44 45 46 47 48 49 50
000
ASUS44 KMEG 271400
RWRTN
TENNESSEE HOURLY STATE WEATHER ROUNDUP
NATIONAL WEATHER SERVICE MEMPHIS TN
900 AM CDT WED MAY 27 2015

TNZ002-004-019-021-049-052-054-088>092-271500-
WEST TENNESSEE

CITY           SKY/WX    TMP DP  RH WIND       PRES   REMARKS
MEMPHIS INTL   PTSUNNY   79  65  62 SW10G21   30.14R
NWS MEMPHIS      N/A     76 N/A N/A MISG        N/A
JACKSON        CLOUDY    75  68  78 SW7       30.16R
DYERSBURG      MOSUNNY   75  59  57 SW9       30.15R
PARIS          SUNNY     73  68  83 S7        30.15R
LEXINGTON      CLOUDY    72  68  88 S6        30.17R
$$

TNZ008-025-027-028-033-062-065-066-271500-
NORTH MIDDLE TENNESSEE

CITY           SKY/WX    TMP DP  RH WIND       PRES   REMARKS
NASHVILLE      PTSUNNY   74  68  81 S9        30.20R
CLARKSVILLE    MOSUNNY   74  69  85 S7        30.15S
COOKEVILLE     MOSUNNY   73  66  78 S8        30.22R
CROSSVILLE     CLOUDY    68  63  84 VRB3      30.26R
$$

TNZ061-075-076-078-094-096-097-271500-
SOUTH MIDDLE TENNESSEE

CITY           SKY/WX    TMP DP  RH WIND       PRES   REMARKS
FAYETTEVILLE   CLOUDY   N/A N/A N/A MISG      30.21F
TULLAHOMA      CLOUDY    70  66  88 S5        30.23S
WINCHESTER     PTSUNNY   73  66  78 S6        30.23S
MCMINNVILLE    PTSUNNY   73  68  83 SW8       30.23S
COLUMBIA       CLOUDY    73  70  88 SW7       30.18R
SHELBYVILLE    CLOUDY    73  70  88 S6        30.22R
$$

TNZ017-018-042-046-047-271500-
NORTHEAST TENNESSEE

CITY           SKY/WX    TMP DP  RH WIND       PRES   REMARKS
TRI CITIES     PTSUNNY   72  62  71 SW7       30.26S
ELIZABETHTON   MOSUNNY   70  61  73 CALM      30.26F
$$

TNZ012-013-036-069-073-074-271500-
CENTRAL EAST TENNESSEE

CITY           SKY/WX    TMP DP  RH WIND       PRES   REMARKS
KNOXVILLE      PTSUNNY   73  60  63 SW14      30.23S
OAK RIDGE      CLOUDY    70  64  81 W8        30.25R
GATLINBURG     SUNNY     72  61  68 NE5       30.24R
$$

TNZ083-085-099-271500-
SOUTHEAST TENNESSEE

CITY           SKY/WX    TMP DP  RH WIND       PRES   REMARKS
CHATTANOOGA    CLOUDY    70  65  84 S6        30.23S
$$

SKY/WX REPORTED AS FAIR MEANS FEW OR NO CLOUDS BELOW
12 THOUSAND FEET.




USA.gov is the U.S. government's official web portal to all federal, state and local government web resources and services.